When you browse on this site, cookies collect data to enhance your experience and personalize the content and advertising you see.
Visit our Privacy Policy to learn more. By continuing to use the site, you agree to this use of cookies and data.
  • In Germany
  • List of Countries
  • For 7 days
  • Water Temperature
  • Weather Map
  • Weather Widgets
  • user-avatar
    Login

    Hourly Weather Shkoder

    Today, 12 December, Thursday

    Time Temperature Precipitation Wind Pressure Humidity
    00:00 +5°C° 0 mm 2 mps 734 mmHg 83%
    01:00 +5°C° 0 mm 2 mps 734 mmHg 83%
    02:00 +5°C° 0 mm 2 mps 733 mmHg 83%
    03:00 +5°C° 0 mm 2 mps 733 mmHg 83%
    04:00 +5°C° 0 mm 2 mps 732 mmHg 82%
    05:00 +5°C° 0 mm 2 mps 732 mmHg 82%
    06:00 +5°C° 0 mm 2 mps 732 mmHg 82%
    07:00 +6°C° 0 mm 1 mps 732 mmHg 81%
    08:00 +7°C° 0 mm 1 mps 732 mmHg 79%
    09:00 +8°C° 0 mm 1 mps 732 mmHg 76%
    10:00 +9°C° 0 mm 1 mps 732 mmHg 74%
    11:00 +10°C° 0 mm 1 mps 732 mmHg 72%
    12:00 +11°C° 0 mm 1 mps 731 mmHg 71%
    13:00 +11°C° 0 mm 1 mps 731 mmHg 69%
    14:00 +11°C° 0.1 mm 1 mps 731 mmHg 73%
    15:00 +10°C° 0.1 mm 1 mps 731 mmHg 77%
    16:00 +9°C° 0.1 mm 1 mps 730 mmHg 81%
    17:00 +9°C° 0.7 mm 1 mps 730 mmHg 84%
    18:00 +9°C° 0.7 mm 1 mps 730 mmHg 87%
    19:00 +9°C° 0.7 mm 1 mps 730 mmHg 90%
    20:00 +9°C° 0.7 mm 1 mps 730 mmHg 91%
    21:00 +9°C° 0.7 mm 1 mps 730 mmHg 92%
    22:00 +9°C° 0.7 mm 1 mps 730 mmHg 94%
    23:00 +9°C° 1.1 mm 1 mps 729 mmHg 93%

    Tomorrow, 13 December, Friday

    Time Temperature Precipitation Wind Pressure Humidity
    00:00 +9°C° 1.1 mm 1 mps 729 mmHg 93%
    01:00 +8°C° 1.1 mm 2 mps 729 mmHg 93%
    02:00 +7°C° 2.2 mm 2 mps 729 mmHg 93%
    03:00 +7°C° 2.2 mm 2 mps 728 mmHg 93%
    04:00 +7°C° 2.2 mm 2 mps 728 mmHg 94%
    05:00 +7°C° 0.7 mm 2 mps 728 mmHg 93%
    06:00 +7°C° 0.7 mm 2 mps 728 mmHg 92%
    07:00 +7°C° 0.7 mm 2 mps 728 mmHg 91%
    08:00 +7°C° 1.5 mm 2 mps 728 mmHg 91%
    09:00 +7°C° 1.5 mm 2 mps 728 mmHg 91%
    10:00 +7°C° 1.5 mm 2 mps 728 mmHg 91%
    11:00 +8°C° 0.5 mm 3 mps 727 mmHg 88%
    12:00 +8°C° 0.5 mm 3 mps 727 mmHg 85%
    13:00 +9°C° 0.5 mm 3 mps 727 mmHg 82%
    14:00 +9°C° 0.3 mm 3 mps 726 mmHg 83%
    15:00 +8°C° 0.3 mm 3 mps 726 mmHg 84%
    16:00 +8°C° 0.3 mm 2 mps 725 mmHg 85%
    17:00 +8°C° 0.3 mm 2 mps 725 mmHg 86%
    18:00 +8°C° 0.3 mm 3 mps 724 mmHg 87%
    19:00 +8°C° 0.3 mm 3 mps 724 mmHg 88%
    20:00 +8°C° 0.7 mm 3 mps 723 mmHg 88%
    21:00 +8°C° 0.7 mm 3 mps 723 mmHg 88%
    22:00 +7°C° 0.7 mm 4 mps 722 mmHg 87%
    23:00 +7°C° 0.5 mm 4 mps 721 mmHg 87%

    Day after tomorrow, 14 December, Saturday

    Time Temperature Precipitation Wind Pressure Humidity
    00:00 +7°C° 0.5 mm 4 mps 720 mmHg 87%
    01:00 +7°C° 0.5 mm 4 mps 719 mmHg 87%
    02:00 +6°C° 2.3 mm 4 mps 719 mmHg 88%
    03:00 +6°C° 2.3 mm 4 mps 719 mmHg 89%
    04:00 +6°C° 2.3 mm 4 mps 719 mmHg 89%
    05:00 +7°C° 0.6 mm 3 mps 720 mmHg 89%
    06:00 +7°C° 0.6 mm 3 mps 721 mmHg 89%
    07:00 +7°C° 0.6 mm 3 mps 722 mmHg 89%
    08:00 +7°C° 0 mm 3 mps 723 mmHg 86%
    09:00 +8°C° 0 mm 3 mps 724 mmHg 84%
    10:00 +9°C° 0 mm 3 mps 725 mmHg 82%
    11:00 +9°C° 0 mm 3 mps 726 mmHg 80%
    12:00 +10°C° 0 mm 3 mps 727 mmHg 78%
    13:00 +11°C° 0 mm 3 mps 728 mmHg 76%
    14:00 +10°C° 0 mm 3 mps 729 mmHg 77%
    15:00 +10°C° 0 mm 3 mps 730 mmHg 79%
    16:00 +9°C° 0 mm 3 mps 731 mmHg 81%
    17:00 +9°C° 0 mm 3 mps 732 mmHg 81%
    18:00 +8°C° 0 mm 3 mps 733 mmHg 82%
    19:00 +8°C° 0 mm 3 mps 734 mmHg 82%
    20:00 +8°C° 0 mm 3 mps 735 mmHg 82%
    21:00 +8°C° 0 mm 3 mps 736 mmHg 83%
    22:00 +7°C° 0 mm 3 mps 737 mmHg 83%
    23:00 +7°C° 0 mm 3 mps 737 mmHg 83%

    15 December, Sunday

    Time Temperature Precipitation Wind Pressure Humidity
    00:00 +7°C° 0 mm 3 mps 738 mmHg 84%
    01:00 +7°C° 0 mm 3 mps 738 mmHg 84%
    02:00 +7°C° 0 mm 3 mps 739 mmHg 84%
    03:00 +7°C° 0 mm 3 mps 739 mmHg 83%
    04:00 +7°C° 0 mm 3 mps 739 mmHg 83%
    05:00 +7°C° 0 mm 3 mps 740 mmHg 82%
    06:00 +6°C° 0 mm 2 mps 740 mmHg 82%
    07:00 +6°C° 0 mm 2 mps 740 mmHg 81%
    08:00 +8°C° 0 mm 2 mps 741 mmHg 79%
    09:00 +9°C° 0 mm 2 mps 741 mmHg 77%
    10:00 +12°C° 0 mm 2 mps 741 mmHg 75%
    11:00 +13°C° 0 mm 1 mps 741 mmHg 73%
    12:00 +13°C° 0 mm 1 mps 741 mmHg 70%
    13:00 +13°C° 0 mm 0 mps 741 mmHg 67%
    14:00 +13°C° 0 mm 0 mps 741 mmHg 70%
    15:00 +12°C° 0 mm 0 mps 741 mmHg 73%
    16:00 +11°C° 0 mm 0 mps 742 mmHg 76%
    17:00 +11°C° 0 mm 0 mps 742 mmHg 74%
    18:00 +11°C° 0 mm 1 mps 743 mmHg 73%
    19:00 +11°C° 0 mm 1 mps 743 mmHg 71%
    20:00 +11°C° 0 mm 1 mps 744 mmHg 72%
    21:00 +11°C° 0 mm 1 mps 744 mmHg 72%
    22:00 +11°C° 0 mm 1 mps 744 mmHg 73%
    23:00 +11°C° 0 mm 1 mps 745 mmHg 75%

    16 December, Monday

    Time Temperature Precipitation Wind Pressure Humidity
    00:00 +11°C° 0 mm 1 mps 745 mmHg 77%
    01:00 +10°C° 0 mm 1 mps 745 mmHg 79%
    02:00 +10°C° 0 mm 1 mps 745 mmHg 80%
    03:00 +10°C° 0 mm 1 mps 745 mmHg 81%
    04:00 +10°C° 0 mm 1 mps 745 mmHg 82%
    05:00 +10°C° 0 mm 1 mps 745 mmHg 83%
    06:00 +10°C° 0 mm 1 mps 746 mmHg 84%
    07:00 +10°C° 0 mm 1 mps 746 mmHg 85%
    08:00 +11°C° 0 mm 1 mps 746 mmHg 82%
    09:00 +12°C° 0 mm 1 mps 746 mmHg 80%
    10:00 +14°C° 0 mm 1 mps 747 mmHg 78%
    11:00 +14°C° 0 mm 1 mps 746 mmHg 76%
    12:00 +15°C° 0 mm 1 mps 746 mmHg 73%
    13:00 +15°C° 0 mm 1 mps 745 mmHg 70%
    14:00 +14°C° 0 mm 1 mps 745 mmHg 73%
    15:00 +13°C° 0 mm 1 mps 745 mmHg 77%
    16:00 +12°C° 0 mm 1 mps 745 mmHg 80%
    17:00 +12°C° 0 mm 1 mps 746 mmHg 78%
    18:00 +12°C° 0 mm 1 mps 746 mmHg 75%
    19:00 +11°C° 0 mm 1 mps 746 mmHg 73%
    20:00 +11°C° 0 mm 1 mps 746 mmHg 75%
    21:00 +11°C° 0 mm 1 mps 746 mmHg 77%
    22:00 +11°C° 0 mm 1 mps 746 mmHg 80%
    23:00 +11°C° 0 mm 1 mps 746 mmHg 81%

    17 December, Tuesday

    Time Temperature Precipitation Wind Pressure Humidity
    00:00 +10°C° 0 mm 1 mps 746 mmHg 82%
    01:00 +10°C° 0 mm 1 mps 746 mmHg 83%
    02:00 +10°C° 0 mm 1 mps 746 mmHg 82%
    03:00 +10°C° 0 mm 1 mps 746 mmHg 81%
    04:00 +10°C° 0 mm 1 mps 746 mmHg 80%
    05:00 +10°C° 0 mm 1 mps 746 mmHg 78%
    06:00 +10°C° 0 mm 1 mps 746 mmHg 76%
    07:00 +10°C° 0 mm 1 mps 746 mmHg 73%
    08:00 +11°C° 0 mm 1 mps 746 mmHg 71%
    09:00 +13°C° 0 mm 1 mps 746 mmHg 69%
    10:00 +14°C° 0 mm 1 mps 746 mmHg 66%
    11:00 +14°C° 0 mm 1 mps 746 mmHg 65%
    12:00 +15°C° 0 mm 1 mps 745 mmHg 64%
    13:00 +15°C° 0 mm 1 mps 745 mmHg 63%
    14:00 +14°C° 0 mm 1 mps 745 mmHg 67%
    15:00 +13°C° 0 mm 1 mps 745 mmHg 71%
    16:00 +11°C° 0 mm 0 mps 745 mmHg 74%
    17:00 +12°C° 0 mm 1 mps 745 mmHg 73%
    18:00 +12°C° 0 mm 1 mps 745 mmHg 72%
    19:00 +11°C° 0 mm 1 mps 745 mmHg 72%
    20:00 +11°C° 0 mm 1 mps 745 mmHg 72%
    21:00 +11°C° 0 mm 1 mps 745 mmHg 72%
    22:00 +11°C° 0 mm 1 mps 746 mmHg 72%
    23:00 +11°C° 0 mm 1 mps 746 mmHg 72%
    Show more